Showing default

SECOR 4 (EGRS 4), 1315

Orbit data source: Space-Track

SECOR 4 (EGRS 4), 1315 is an American payload satellite in LEO that was launched on Sat, 03 Apr 1965 UTC via an ATLAS SLV-3 AGENA D launch vehicle from the Air Force Western Test Range (AFWTR). Payload-class satellites include a variety of spacecraft equipped with specific instruments for various scientific and technological missions. These include communications satellites like Starlink; space stations such as the ISS; scientific satellites like the Hubble; Earth observation satellites from companies like Planet Labs, Umbra, and HawkEye 360; GPS; miniature CubeSats for education and research; and military/defense satellites.

Loading next visibility...
Identifier
1315, 1965-027B
Orbit
LEO
Country
Flag of USUS
Related business
Manufacturer
ITT
Mission
Spacecraft
Bus & Motor
SECOR, Unknown motor
Mass
18 kg wet, 18 kg dry
Launch date (UTC)
1965-04-03 (61 years ago)
Launch vehicle
ATLAS SLV-3 AGENA D
Launch site
Air Force Western Test Range (AFWTR)
Object type
Payload
Rocket body
Debris
Shape & HBR
Unknown
Radar Cross Section
Medium (>0.1 m² and <1 m²)

Expand to show TLE details & history
Last TLE update: 12 hours ago

TLE from 12 hours ago
0 SECOR 4 (EGRS 4)
1 01315U 65027B   26150.46481666  .00000025  00000-0  66084-4 0  9990
2 01315  90.2511  15.1774 0029498 245.4570 231.8693 12.92667536884632
Epoch: 2026-05-30T11:09Z
TLE epoch observation values (Epoch: 2026-05-30T11:09:20.159Z)
Latitude
63.0206°
Longitude
140.35374°
Altitude
1,315.864 km
Speed
7.198 km/s
True Right ascension
13h 02m 40s
True Declination
62° 53' 29"
Sunlit
Object was in daylight at epoch
Visualization orbit readout
Latitude
Unknown
Longitude
Unknown
Altitude
Unknown
Speed
Unknown
Apparent Right ascension
Unknown
Apparent Declination
Unknown
Sunlit
N/A
Visualization observer readout
Local Sidereal Time
08:23:18
Azimuth
Unknown
Elevation
Unknown
Doppler factor
Unknown
Orbital elements
Apogee altitude
1,310.703 km
Perigee altitude
1,265.475 km
Semi-major axis
7,666.226 km
Eccentricity
0.00295
Inclination
90.2511°
RAAN
15.1774°
Arg. of periapsis
245.457°
True anomaly
231.60402°
Mean anomaly
231.8693°
Eccentric anomaly
231.7366°
Mean motion
3.23348 °/min
Orbital period
111.34 mins
BSTAR
0.000066084
Loading maneuver chart data...
Computing Atmospheric mass density...
Loading historical data...
Loading historical data...
Loading historical data...
Loading historical data...
Loading historical data...
Loading historical data...
Loading historical data...

Documentation

Showing up to 5 results
|